Find Starlink 30105

NORAD ID: 57433 Int'l Des: 2023-105 Owner: SPXS Country: US Constellation: starlink operational
LEOCIRCULAR

現在のビュー

3D地球を読み込み中...

About Starlink 30105

Starlink 30105 (NORAD 57433) is a starlink constellation satellite (v2 mini) launched Jul 24, 2023 by SPXS of US. It operates in LEO, CIRCULAR orbit with a mass of 730.00 kg.

Starlink 30105について

説明を読み込み中...

次回通過

Passes for default location (London). Set your location on the main map for personalized predictions.

高度履歴

Loading altitude history...

軌道要素

1 57433U 23105D 26170.28809380 .00003101 00000-0 12211-3 0 9992
2 57433 43.0019 177.0598 0001311 267.0304 93.0398 15.27590777163862
Epoch: Jun 19, 2026 • Age: 23 hours

現在のステータス

高度 482.7 km
速度 7.63 km/s
衛星直下点 18.07°N, 20.33°W
打ち上げ日 Jul 24, 2023
運用期間 2.9 years
タイプ internet

技術仕様

分類 Payload
質量 730.00 kg
乾燥質量 700.00 kg
総質量 730.00 kg
長さ 0.30 m
直径 4.10 m
スパン 29.00 m
形状 Box + pan
製造者 SPXS
バスタイプ Starlink V2M
フェーズステータス In Orbit
所有者/国 SPXS/US

Most Searched